Tracking 28790 objects as of 19-Apr-2024
HD Live streaming from Space Station
objects crossing your sky now

THORAD AGENA D DEB

Track THORAD AGENA D DEB now!
10-day predictions


NORAD ID: 4187
Int'l Code: 1969-082BA
Perigee: 620.7 km
Apogee: 657.4 km
Inclination: 70.0 °
Period: 97.4 minutes
Semi major axis: 7010 km
RCS: 0.0694 m2 (small)
Launch date: September 30, 1969
Source: United States (US)
Launch site: AIR FORCE WESTERN TEST RANGE (AFWTR)

Note: This is SATELLITE DEBRIS
Your satellite tracking list
Your tracking list is empty




NASA's NSSDC Master Catalog

Two Line Element Set (TLE):
1 04187U 69082BA  24109.88568859  .00024461  00000-0  32728-2 0  9999
2 04187  69.9655 302.0406 0026183 203.6013 156.3937 14.79172643871398
Source of the keplerian elements: AFSPC